Regional Weather Roundup
Issued by NWS

Home | Current Version | Previous Version | Graphics & Text | Print | Product List | Glossary On
Versions: 1 2 3 4 5 6 7 8 9 10 11 12 13 14 15 16 17 18 19 20 21 22 23 24 25 26 27 28 29 30 31 32 33 34 35 36 37 38 39 40 41 42 43 44 45 46 47 48 49 50
000
ASUS44 KMEG 282300
RWRTN
TENNESSEE HOURLY STATE WEATHER ROUNDUP
NATIONAL WEATHER SERVICE MEMPHIS TN
600 PM CDT SAT MAR 28 2015

TNZ002-004-019-021-049-052-054-088>092-290000-
WEST TENNESSEE

CITY           SKY/WX    TMP DP  RH WIND       PRES   REMARKS
MEMPHIS INTL   CLOUDY    43  25  49 VRB3      30.27R
NWS MEMPHIS      N/A     42 N/A N/A MISG        N/A
JACKSON        CLOUDY    45  20  36 CALM      30.26S
DYERSBURG      SUNNY     46  21  36 SW7       30.28S
UNION CITY     SUNNY     45  19  36 E7        30.26R
PARIS          SUNNY     43  10  26 N5        30.26S
LEXINGTON      SUNNY     46   9  21 NE7       30.24R
SAVANNAH       PTSUNNY   45  18  33 W3        30.25S
$$

TNZ008-025-027-028-033-062-065-066-290000-
NORTH MIDDLE TENNESSEE

CITY           SKY/WX    TMP DP  RH WIND       PRES   REMARKS
NASHVILLE      SUNNY     46  11  24 N8        30.26R
CLARKSVILLE    SUNNY     45  12  26 NE5       30.27R
COOKEVILLE     SUNNY     43  12  28 N7        30.22S
CROSSVILLE     SUNNY     41   7  24 NW9       30.19R
$$

TNZ061-075-076-078-094-096-097-290000-
SOUTH MIDDLE TENNESSEE

CITY           SKY/WX    TMP DP  RH WIND       PRES   REMARKS
FAYETTEVILLE   SUNNY     43  10  26 N8        30.22S
TULLAHOMA      SUNNY     43   7  22 N8        30.24R
WINCHESTER     SUNNY     43  10  26 NW5       30.23R
COLUMBIA       SUNNY     46  12  25 CALM      30.23R
SHELBYVILLE    SUNNY     45  14  29 N7        30.25S
$$

TNZ017-018-042-046-047-290000-
NORTHEAST TENNESSEE

CITY           SKY/WX    TMP DP  RH WIND       PRES   REMARKS
TRI CITIES     PTCLDY    38   9  30 N10       30.17R WCI  31
ELIZABETHTON   CLEAR     36   9  32 VRB6      30.16R WCI  31
$$

TNZ012-013-036-069-073-074-290000-
CENTRAL EAST TENNESSEE

CITY           SKY/WX    TMP DP  RH WIND       PRES   REMARKS
KNOXVILLE      MOSUNNY   45   6  20 NW5       30.19R
OAK RIDGE      SUNNY     46   8  21 N8        30.22R
GATLINBURG     CLEAR     43  10  26 N8        30.19R
$$

TNZ083-085-099-290000-
SOUTHEAST TENNESSEE

CITY           SKY/WX    TMP DP  RH WIND       PRES   REMARKS
CHATTANOOGA    MOSUNNY   49   4  16 N12       30.20R
$$

SKY/WX REPORTED AS FAIR MEANS FEW OR NO CLOUDS BELOW
12 THOUSAND FEET.



USA.gov is the U.S. government's official web portal to all federal, state and local government web resources and services.